TimeAKDT,TemperatureF,Dew PointF,Humidity,Sea Level PressureIn,VisibilityMPH,Wind Direction,Wind SpeedMPH,Gust SpeedMPH,PrecipitationIn,Events,Conditions,WindDirDegrees,DateUTC
12:53 AM,51.1,46.9,86,29.83,10.0,NE,3.5,-,N/A,,Clear,40,2013-08-30 08:53:00
1:53 AM,51.1,46.9,86,29.81,10.0,Calm,Calm,-,N/A,,Clear,0,2013-08-30 09:53:00
2:53 AM,48.9,46.0,90,29.81,10.0,NE,5.8,-,N/A,,Clear,40,2013-08-30 10:53:00
3:53 AM,48.9,46.0,90,29.82,10.0,NE,4.6,-,N/A,,Clear,40,2013-08-30 11:53:00
4:53 AM,48.9,46.0,90,29.83,10.0,NNE,3.5,-,N/A,,Clear,30,2013-08-30 12:53:00
5:53 AM,48.0,45.0,89,29.83,10.0,NE,4.6,-,N/A,,Clear,40,2013-08-30 13:53:00
6:53 AM,48.0,45.0,89,29.84,10.0,NE,4.6,-,N/A,,Clear,40,2013-08-30 14:53:00
7:53 AM,48.0,45.0,89,29.85,10.0,NNE,5.8,-,N/A,,Clear,30,2013-08-30 15:53:00
8:53 AM,52.0,48.0,86,29.87,10.0,Calm,Calm,-,N/A,,Clear,0,2013-08-30 16:53:00
9:53 AM,52.0,48.0,86,29.88,10.0,Calm,Calm,-,N/A,,Clear,0,2013-08-30 17:53:00
10:53 AM,55.9,48.0,75,29.89,10.0,Calm,Calm,-,N/A,,Clear,0,2013-08-30 18:53:00
11:53 AM,59.0,48.0,67,29.90,10.0,SSW,5.8,-,N/A,,Clear,210,2013-08-30 19:53:00
12:53 PM,60.1,46.9,62,29.91,10.0,WSW,11.5,-,N/A,,Clear,250,2013-08-30 20:53:00
1:53 PM,61.0,48.0,62,29.91,10.0,SSW,18.4,28.8,0.01,,Mostly Cloudy,210,2013-08-30 21:53:00
2:53 PM,59.0,48.0,67,29.91,10.0,SSW,12.7,-,N/A,,Overcast,210,2013-08-30 22:53:00
3:53 PM,57.9,48.0,70,29.93,10.0,WSW,15.0,24.2,N/A,,Overcast,240,2013-08-30 23:53:00
4:53 PM,62.1,48.9,62,29.94,10.0,SSW,16.1,26.5,N/A,,Overcast,210,2013-08-31 00:53:00
5:53 PM,62.1,52.0,70,29.96,10.0,SSW,15.0,20.7,N/A,,Overcast,210,2013-08-31 01:53:00
6:53 PM,55.9,52.0,87,29.97,9.0,WSW,13.8,-,0.01,Rain,Light Rain,240,2013-08-31 02:53:00
7:32 PM,55.4,53.6,94,29.99,9.0,Calm,Calm,-,0.01,Rain,Light Rain,0,2013-08-31 03:32:00
7:53 PM,57.0,54.0,89,29.99,10.0,SSE,4.6,-,0.01,Rain,Light Rain,160,2013-08-31 03:53:00
8:26 PM,55.4,53.6,94,29.99,9.0,Calm,Calm,-,0.01,Rain,Light Rain,0,2013-08-31 04:26:00
8:50 PM,57.2,53.6,88,30.00,10.0,Calm,Calm,-,0.01,,Overcast,0,2013-08-31 04:50:00
8:53 PM,57.0,54.0,89,30.00,10.0,Calm,Calm,-,0.01,,Overcast,0,2013-08-31 04:53:00
9:53 PM,57.0,54.0,89,30.00,10.0,Calm,Calm,-,N/A,,Overcast,0,2013-08-31 05:53:00
10:04 PM,57.2,53.6,88,30.01,10.0,NW,4.6,-,N/A,,Overcast,310,2013-08-31 06:04:00
10:27 PM,57.2,53.6,88,29.99,10.0,Variable,4.6,-,N/A,,Overcast,0,2013-08-31 06:27:00
10:53 PM,57.9,54.0,87,30.00,10.0,Calm,Calm,-,N/A,,Overcast,0,2013-08-31 06:53:00
11:11 PM,57.2,53.6,88,30.00,10.0,WNW,6.9,-,N/A,,Overcast,300,2013-08-31 07:11:00
11:53 PM,57.0,53.1,87,30.01,10.0,Variable,5.8,-,N/A,,Overcast,0,2013-08-31 07:53:00